Index of /20260426/WXO-DD/model_rdps/10km/12/035
Name Last modified Size Description
Parent Directory -
20260426T12Z_MSC_RDPS_AbsoluteVorticity_IsbL-0250_RLatLon0.09_PT035H.grib2 2026-04-26 14:50 616K
20260426T12Z_MSC_RDPS_AbsoluteVorticity_IsbL-0500_RLatLon0.09_PT035H.grib2 2026-04-26 14:50 687K
20260426T12Z_MSC_RDPS_AbsoluteVorticity_IsbL-0700_RLatLon0.09_PT035H.grib2 2026-04-26 14:50 621K
20260426T12Z_MSC_RDPS_AbsoluteVorticity_IsbL-0850_RLatLon0.09_PT035H.grib2 2026-04-26 14:50 779K
20260426T12Z_MSC_RDPS_AirTemp_AGL-120m_RLatLon0.09_PT035H.grib2 2026-04-26 14:50 393K
20260426T12Z_MSC_RDPS_AirTemp_AGL-2m_RLatLon0.09_PT035H.grib2 2026-04-26 14:50 632K
20260426T12Z_MSC_RDPS_AirTemp_AGL-40m_RLatLon0.09_PT035H.grib2 2026-04-26 14:50 403K
20260426T12Z_MSC_RDPS_AirTemp_AGL-80m_RLatLon0.09_PT035H.grib2 2026-04-26 14:50 397K
20260426T12Z_MSC_RDPS_AirTemp_IsbL-0001_RLatLon0.09_PT035H.grib2 2026-04-26 14:50 268K
20260426T12Z_MSC_RDPS_AirTemp_IsbL-0005_RLatLon0.09_PT035H.grib2 2026-04-26 14:50 295K
20260426T12Z_MSC_RDPS_AirTemp_IsbL-0010_RLatLon0.09_PT035H.grib2 2026-04-26 14:50 309K
20260426T12Z_MSC_RDPS_AirTemp_IsbL-0020_RLatLon0.09_PT035H.grib2 2026-04-26 14:50 326K
20260426T12Z_MSC_RDPS_AirTemp_IsbL-0030_RLatLon0.09_PT035H.grib2 2026-04-26 14:50 341K
20260426T12Z_MSC_RDPS_AirTemp_IsbL-0050_RLatLon0.09_PT035H.grib2 2026-04-26 14:50 321K
20260426T12Z_MSC_RDPS_AirTemp_IsbL-0100_RLatLon0.09_PT035H.grib2 2026-04-26 14:50 428K
20260426T12Z_MSC_RDPS_AirTemp_IsbL-0150_RLatLon0.09_PT035H.grib2 2026-04-26 14:50 427K
20260426T12Z_MSC_RDPS_AirTemp_IsbL-0175_RLatLon0.09_PT035H.grib2 2026-04-26 14:50 419K
20260426T12Z_MSC_RDPS_AirTemp_IsbL-0200_RLatLon0.09_PT035H.grib2 2026-04-26 14:50 424K
20260426T12Z_MSC_RDPS_AirTemp_IsbL-0225_RLatLon0.09_PT035H.grib2 2026-04-26 14:50 425K
20260426T12Z_MSC_RDPS_AirTemp_IsbL-0250_RLatLon0.09_PT035H.grib2 2026-04-26 14:50 431K
20260426T12Z_MSC_RDPS_AirTemp_IsbL-0275_RLatLon0.09_PT035H.grib2 2026-04-26 14:50 411K
20260426T12Z_MSC_RDPS_AirTemp_IsbL-0300_RLatLon0.09_PT035H.grib2 2026-04-26 14:50 416K
20260426T12Z_MSC_RDPS_AirTemp_IsbL-0350_RLatLon0.09_PT035H.grib2 2026-04-26 14:50 426K
20260426T12Z_MSC_RDPS_AirTemp_IsbL-0400_RLatLon0.09_PT035H.grib2 2026-04-26 14:50 427K
20260426T12Z_MSC_RDPS_AirTemp_IsbL-0450_RLatLon0.09_PT035H.grib2 2026-04-26 14:50 434K
20260426T12Z_MSC_RDPS_AirTemp_IsbL-0500_RLatLon0.09_PT035H.grib2 2026-04-26 14:50 410K
20260426T12Z_MSC_RDPS_AirTemp_IsbL-0550_RLatLon0.09_PT035H.grib2 2026-04-26 14:50 429K
20260426T12Z_MSC_RDPS_AirTemp_IsbL-0600_RLatLon0.09_PT035H.grib2 2026-04-26 14:50 445K
20260426T12Z_MSC_RDPS_AirTemp_IsbL-0650_RLatLon0.09_PT035H.grib2 2026-04-26 14:50 459K
20260426T12Z_MSC_RDPS_AirTemp_IsbL-0700_RLatLon0.09_PT035H.grib2 2026-04-26 14:50 487K
20260426T12Z_MSC_RDPS_AirTemp_IsbL-0750_RLatLon0.09_PT035H.grib2 2026-04-26 14:50 416K
20260426T12Z_MSC_RDPS_AirTemp_IsbL-0800_RLatLon0.09_PT035H.grib2 2026-04-26 14:50 457K
20260426T12Z_MSC_RDPS_AirTemp_IsbL-0850_RLatLon0.09_PT035H.grib2 2026-04-26 14:50 501K
20260426T12Z_MSC_RDPS_AirTemp_IsbL-0875_RLatLon0.09_PT035H.grib2 2026-04-26 14:50 525K
20260426T12Z_MSC_RDPS_AirTemp_IsbL-0900_RLatLon0.09_PT035H.grib2 2026-04-26 14:50 532K
20260426T12Z_MSC_RDPS_AirTemp_IsbL-0925_RLatLon0.09_PT035H.grib2 2026-04-26 14:50 532K
20260426T12Z_MSC_RDPS_AirTemp_IsbL-0950_RLatLon0.09_PT035H.grib2 2026-04-26 14:50 533K
20260426T12Z_MSC_RDPS_AirTemp_IsbL-0970_RLatLon0.09_PT035H.grib2 2026-04-26 14:50 532K
20260426T12Z_MSC_RDPS_AirTemp_IsbL-0985_RLatLon0.09_PT035H.grib2 2026-04-26 14:50 526K
20260426T12Z_MSC_RDPS_AirTemp_IsbL-1000_RLatLon0.09_PT035H.grib2 2026-04-26 14:50 513K
20260426T12Z_MSC_RDPS_AirTemp_IsbL-1015_RLatLon0.09_PT035H.grib2 2026-04-26 14:50 508K
20260426T12Z_MSC_RDPS_Albedo_Sfc_RLatLon0.09_PT035H.grib2 2026-04-26 14:50 158K
20260426T12Z_MSC_RDPS_CAPE_Sfc_RLatLon0.09_PT035H.grib2 2026-04-26 14:50 1.8M
20260426T12Z_MSC_RDPS_CIN_Sfc_RLatLon0.09_PT035H.grib2 2026-04-26 14:50 1.2M
20260426T12Z_MSC_RDPS_CloudWater_EAtm_RLatLon0.09_PT035H.grib2 2026-04-26 14:50 222K
20260426T12Z_MSC_RDPS_ConvectivePrecip-Accum_Sfc_RLatLon0.09_PT035H.grib2 2026-04-26 14:50 1.0M
20260426T12Z_MSC_RDPS_DewPointDepression_AGL-2m_RLatLon0.09_PT035H.grib2 2026-04-26 14:50 417K
20260426T12Z_MSC_RDPS_DewPointDepression_IsbL-0001_RLatLon0.09_PT035H.grib2 2026-04-26 14:50 193
20260426T12Z_MSC_RDPS_DewPointDepression_IsbL-0005_RLatLon0.09_PT035H.grib2 2026-04-26 14:50 193
20260426T12Z_MSC_RDPS_DewPointDepression_IsbL-0010_RLatLon0.09_PT035H.grib2 2026-04-26 14:50 193
20260426T12Z_MSC_RDPS_DewPointDepression_IsbL-0020_RLatLon0.09_PT035H.grib2 2026-04-26 14:50 193
20260426T12Z_MSC_RDPS_DewPointDepression_IsbL-0030_RLatLon0.09_PT035H.grib2 2026-04-26 14:50 193
20260426T12Z_MSC_RDPS_DewPointDepression_IsbL-0050_RLatLon0.09_PT035H.grib2 2026-04-26 14:50 88K
20260426T12Z_MSC_RDPS_DewPointDepression_IsbL-0100_RLatLon0.09_PT035H.grib2 2026-04-26 14:50 129K
20260426T12Z_MSC_RDPS_DewPointDepression_IsbL-0150_RLatLon0.09_PT035H.grib2 2026-04-26 14:50 151K
20260426T12Z_MSC_RDPS_DewPointDepression_IsbL-0175_RLatLon0.09_PT035H.grib2 2026-04-26 14:50 187K
20260426T12Z_MSC_RDPS_DewPointDepression_IsbL-0200_RLatLon0.09_PT035H.grib2 2026-04-26 14:50 228K
20260426T12Z_MSC_RDPS_DewPointDepression_IsbL-0225_RLatLon0.09_PT035H.grib2 2026-04-26 14:50 270K
20260426T12Z_MSC_RDPS_DewPointDepression_IsbL-0250_RLatLon0.09_PT035H.grib2 2026-04-26 14:50 305K
20260426T12Z_MSC_RDPS_DewPointDepression_IsbL-0275_RLatLon0.09_PT035H.grib2 2026-04-26 14:50 314K
20260426T12Z_MSC_RDPS_DewPointDepression_IsbL-0300_RLatLon0.09_PT035H.grib2 2026-04-26 14:50 328K
20260426T12Z_MSC_RDPS_DewPointDepression_IsbL-0350_RLatLon0.09_PT035H.grib2 2026-04-26 14:50 332K
20260426T12Z_MSC_RDPS_DewPointDepression_IsbL-0400_RLatLon0.09_PT035H.grib2 2026-04-26 14:50 348K
20260426T12Z_MSC_RDPS_DewPointDepression_IsbL-0450_RLatLon0.09_PT035H.grib2 2026-04-26 14:50 363K
20260426T12Z_MSC_RDPS_DewPointDepression_IsbL-0500_RLatLon0.09_PT035H.grib2 2026-04-26 14:50 367K
20260426T12Z_MSC_RDPS_DewPointDepression_IsbL-0550_RLatLon0.09_PT035H.grib2 2026-04-26 14:50 376K
20260426T12Z_MSC_RDPS_DewPointDepression_IsbL-0600_RLatLon0.09_PT035H.grib2 2026-04-26 14:50 388K
20260426T12Z_MSC_RDPS_DewPointDepression_IsbL-0650_RLatLon0.09_PT035H.grib2 2026-04-26 14:50 397K
20260426T12Z_MSC_RDPS_DewPointDepression_IsbL-0700_RLatLon0.09_PT035H.grib2 2026-04-26 14:50 410K
20260426T12Z_MSC_RDPS_DewPointDepression_IsbL-0750_RLatLon0.09_PT035H.grib2 2026-04-26 14:50 434K
20260426T12Z_MSC_RDPS_DewPointDepression_IsbL-0800_RLatLon0.09_PT035H.grib2 2026-04-26 14:50 459K
20260426T12Z_MSC_RDPS_DewPointDepression_IsbL-0850_RLatLon0.09_PT035H.grib2 2026-04-26 14:50 480K
20260426T12Z_MSC_RDPS_DewPointDepression_IsbL-0875_RLatLon0.09_PT035H.grib2 2026-04-26 14:50 478K
20260426T12Z_MSC_RDPS_DewPointDepression_IsbL-0900_RLatLon0.09_PT035H.grib2 2026-04-26 14:50 470K
20260426T12Z_MSC_RDPS_DewPointDepression_IsbL-0925_RLatLon0.09_PT035H.grib2 2026-04-26 14:50 459K
20260426T12Z_MSC_RDPS_DewPointDepression_IsbL-0950_RLatLon0.09_PT035H.grib2 2026-04-26 14:50 447K
20260426T12Z_MSC_RDPS_DewPointDepression_IsbL-0970_RLatLon0.09_PT035H.grib2 2026-04-26 14:50 437K
20260426T12Z_MSC_RDPS_DewPointDepression_IsbL-0985_RLatLon0.09_PT035H.grib2 2026-04-26 14:50 432K
20260426T12Z_MSC_RDPS_DewPointDepression_IsbL-1000_RLatLon0.09_PT035H.grib2 2026-04-26 14:50 428K
20260426T12Z_MSC_RDPS_DewPointDepression_IsbL-1015_RLatLon0.09_PT035H.grib2 2026-04-26 14:50 421K
20260426T12Z_MSC_RDPS_DewPoint_AGL-2m_RLatLon0.09_PT035H.grib2 2026-04-26 14:50 312K
20260426T12Z_MSC_RDPS_DownwardLongwaveRadiationFlux-Accum_Sfc_RLatLon0.09_PT035H.grib2 2026-04-26 14:50 379K
20260426T12Z_MSC_RDPS_DownwardShortwaveRadiationFlux-Accum_NTAtm_RLatLon0.09_PT035H.grib2 2026-04-26 14:50 95K
20260426T12Z_MSC_RDPS_DownwardShortwaveRadiationFlux-Accum_Sfc_RLatLon0.09_PT035H.grib2 2026-04-26 14:50 544K
20260426T12Z_MSC_RDPS_FreezingRain-Accum1h_Sfc_RLatLon0.09_PT035H.grib2 2026-04-26 14:50 10K
20260426T12Z_MSC_RDPS_FreezingRain-Accum_Sfc_RLatLon0.09_PT035H.grib2 2026-04-26 14:50 126K
20260426T12Z_MSC_RDPS_GeopotentialHeight_IsbL-0001_RLatLon0.09_PT035H.grib2 2026-04-26 14:50 247K
20260426T12Z_MSC_RDPS_GeopotentialHeight_IsbL-0005_RLatLon0.09_PT035H.grib2 2026-04-26 14:50 315K
20260426T12Z_MSC_RDPS_GeopotentialHeight_IsbL-0010_RLatLon0.09_PT035H.grib2 2026-04-26 14:50 345K
20260426T12Z_MSC_RDPS_GeopotentialHeight_IsbL-0020_RLatLon0.09_PT035H.grib2 2026-04-26 14:50 312K
20260426T12Z_MSC_RDPS_GeopotentialHeight_IsbL-0030_RLatLon0.09_PT035H.grib2 2026-04-26 14:50 313K
20260426T12Z_MSC_RDPS_GeopotentialHeight_IsbL-0050_RLatLon0.09_PT035H.grib2 2026-04-26 14:50 314K
20260426T12Z_MSC_RDPS_GeopotentialHeight_IsbL-0100_RLatLon0.09_PT035H.grib2 2026-04-26 14:50 293K
20260426T12Z_MSC_RDPS_GeopotentialHeight_IsbL-0150_RLatLon0.09_PT035H.grib2 2026-04-26 14:50 233K
20260426T12Z_MSC_RDPS_GeopotentialHeight_IsbL-0175_RLatLon0.09_PT035H.grib2 2026-04-26 14:50 237K
20260426T12Z_MSC_RDPS_GeopotentialHeight_IsbL-0200_RLatLon0.09_PT035H.grib2 2026-04-26 14:50 270K
20260426T12Z_MSC_RDPS_GeopotentialHeight_IsbL-0225_RLatLon0.09_PT035H.grib2 2026-04-26 14:50 271K
20260426T12Z_MSC_RDPS_GeopotentialHeight_IsbL-0250_RLatLon0.09_PT035H.grib2 2026-04-26 14:50 273K
20260426T12Z_MSC_RDPS_GeopotentialHeight_IsbL-0275_RLatLon0.09_PT035H.grib2 2026-04-26 14:50 272K
20260426T12Z_MSC_RDPS_GeopotentialHeight_IsbL-0300_RLatLon0.09_PT035H.grib2 2026-04-26 14:50 271K
20260426T12Z_MSC_RDPS_GeopotentialHeight_IsbL-0350_RLatLon0.09_PT035H.grib2 2026-04-26 14:50 236K
20260426T12Z_MSC_RDPS_GeopotentialHeight_IsbL-0400_RLatLon0.09_PT035H.grib2 2026-04-26 14:50 231K
20260426T12Z_MSC_RDPS_GeopotentialHeight_IsbL-0450_RLatLon0.09_PT035H.grib2 2026-04-26 14:50 299K
20260426T12Z_MSC_RDPS_GeopotentialHeight_IsbL-0500_RLatLon0.09_PT035H.grib2 2026-04-26 14:50 295K
20260426T12Z_MSC_RDPS_GeopotentialHeight_IsbL-0550_RLatLon0.09_PT035H.grib2 2026-04-26 14:50 291K
20260426T12Z_MSC_RDPS_GeopotentialHeight_IsbL-0600_RLatLon0.09_PT035H.grib2 2026-04-26 14:50 288K
20260426T12Z_MSC_RDPS_GeopotentialHeight_IsbL-0650_RLatLon0.09_PT035H.grib2 2026-04-26 14:50 285K
20260426T12Z_MSC_RDPS_GeopotentialHeight_IsbL-0700_RLatLon0.09_PT035H.grib2 2026-04-26 14:50 255K
20260426T12Z_MSC_RDPS_GeopotentialHeight_IsbL-0750_RLatLon0.09_PT035H.grib2 2026-04-26 14:50 257K
20260426T12Z_MSC_RDPS_GeopotentialHeight_IsbL-0800_RLatLon0.09_PT035H.grib2 2026-04-26 14:50 262K
20260426T12Z_MSC_RDPS_GeopotentialHeight_IsbL-0850_RLatLon0.09_PT035H.grib2 2026-04-26 14:50 353K
20260426T12Z_MSC_RDPS_GeopotentialHeight_IsbL-0875_RLatLon0.09_PT035H.grib2 2026-04-26 14:50 355K
20260426T12Z_MSC_RDPS_GeopotentialHeight_IsbL-0900_RLatLon0.09_PT035H.grib2 2026-04-26 14:50 362K
20260426T12Z_MSC_RDPS_GeopotentialHeight_IsbL-0925_RLatLon0.09_PT035H.grib2 2026-04-26 14:50 362K
20260426T12Z_MSC_RDPS_GeopotentialHeight_IsbL-0950_RLatLon0.09_PT035H.grib2 2026-04-26 14:50 367K
20260426T12Z_MSC_RDPS_GeopotentialHeight_IsbL-0970_RLatLon0.09_PT035H.grib2 2026-04-26 14:50 372K
20260426T12Z_MSC_RDPS_GeopotentialHeight_IsbL-0985_RLatLon0.09_PT035H.grib2 2026-04-26 14:50 381K
20260426T12Z_MSC_RDPS_GeopotentialHeight_IsbL-1000_RLatLon0.09_PT035H.grib2 2026-04-26 14:50 394K
20260426T12Z_MSC_RDPS_GeopotentialHeight_IsbL-1015_RLatLon0.09_PT035H.grib2 2026-04-26 14:50 408K
20260426T12Z_MSC_RDPS_Humidex_Sfc_RLatLon0.09_PT035H.grib2 2026-04-26 14:50 2.3M
20260426T12Z_MSC_RDPS_IcePellets-Accum1h_Sfc_RLatLon0.09_PT035H.grib2 2026-04-26 14:50 4.8K
20260426T12Z_MSC_RDPS_IcePellets-Accum_Sfc_RLatLon0.09_PT035H.grib2 2026-04-26 14:50 20K
20260426T12Z_MSC_RDPS_KIndex_Sfc_RLatLon0.09_PT035H.grib2 2026-04-26 14:50 2.5M
20260426T12Z_MSC_RDPS_LatentHeatNetFlux_Sfc_RLatLon0.09_PT035H.grib2 2026-04-26 14:50 286K
20260426T12Z_MSC_RDPS_LiftedIndex-MU-VT_IsbL-0500_RLatLon0.09_PT035H.grib2 2026-04-26 14:50 2.4M
20260426T12Z_MSC_RDPS_NetLongwaveRadiationFlux-Accum_Sfc_RLatLon0.09_PT035H.grib2 2026-04-26 14:50 514K
20260426T12Z_MSC_RDPS_NetShortwaveRadiationFlux-Accum_Sfc_RLatLon0.09_PT035H.grib2 2026-04-26 14:50 547K
20260426T12Z_MSC_RDPS_PlanetaryBoundaryLayerHeight_Sfc_RLatLon0.09_PT035H.grib2 2026-04-26 14:50 1.0M
20260426T12Z_MSC_RDPS_Precip-Accum1h_Sfc_RLatLon0.09_PT035H.grib2 2026-04-26 14:50 1.2M
20260426T12Z_MSC_RDPS_Precip-Accum_Sfc_RLatLon0.09_PT035H.grib2 2026-04-26 14:50 2.0M
20260426T12Z_MSC_RDPS_PrecipRate_Sfc_RLatLon0.09_PT035H.grib2 2026-04-26 14:50 183K
20260426T12Z_MSC_RDPS_PrecipType-Instant_Sfc_RLatLon0.09_PT035H.grib2 2026-04-26 14:50 591K
20260426T12Z_MSC_RDPS_Pressure-Trend3h_Sfc_RLatLon0.09_PT035H.grib2 2026-04-26 14:50 1.2M
20260426T12Z_MSC_RDPS_Pressure_MSL_RLatLon0.09_PT035H.grib2 2026-04-26 14:50 296K
20260426T12Z_MSC_RDPS_Pressure_PVU-1.5_RLatLon0.09_PT035H.grib2 2026-04-26 14:50 2.5M
20260426T12Z_MSC_RDPS_Pressure_PVU-1_RLatLon0.09_PT035H.grib2 2026-04-26 14:50 2.4M
20260426T12Z_MSC_RDPS_Pressure_PVU-2_RLatLon0.09_PT035H.grib2 2026-04-26 14:50 2.4M
20260426T12Z_MSC_RDPS_Pressure_Sfc_RLatLon0.09_PT035H.grib2 2026-04-26 14:50 499K
20260426T12Z_MSC_RDPS_RadiativeTemp_Sfc_RLatLon0.09_PT035H.grib2 2026-04-26 14:50 322K
20260426T12Z_MSC_RDPS_Rain-Accum1h_Sfc_RLatLon0.09_PT035H.grib2 2026-04-26 14:50 624K
20260426T12Z_MSC_RDPS_Rain-Accum_Sfc_RLatLon0.09_PT035H.grib2 2026-04-26 14:50 1.5M
20260426T12Z_MSC_RDPS_RelativeHumidity_AGL-2m_RLatLon0.09_PT035H.grib2 2026-04-26 14:50 1.0M
20260426T12Z_MSC_RDPS_RelativeHumidity_IsbL-0010_RLatLon0.09_PT035H.grib2 2026-04-26 14:50 628K
20260426T12Z_MSC_RDPS_RelativeHumidity_IsbL-0020_RLatLon0.09_PT035H.grib2 2026-04-26 14:50 652K
20260426T12Z_MSC_RDPS_RelativeHumidity_IsbL-0030_RLatLon0.09_PT035H.grib2 2026-04-26 14:50 541K
20260426T12Z_MSC_RDPS_RelativeHumidity_IsbL-0050_RLatLon0.09_PT035H.grib2 2026-04-26 14:50 380K
20260426T12Z_MSC_RDPS_RelativeHumidity_IsbL-0100_RLatLon0.09_PT035H.grib2 2026-04-26 14:50 280K
20260426T12Z_MSC_RDPS_RelativeHumidity_IsbL-0150_RLatLon0.09_PT035H.grib2 2026-04-26 14:50 413K
20260426T12Z_MSC_RDPS_RelativeHumidity_IsbL-0175_RLatLon0.09_PT035H.grib2 2026-04-26 14:50 489K
20260426T12Z_MSC_RDPS_RelativeHumidity_IsbL-0200_RLatLon0.09_PT035H.grib2 2026-04-26 14:50 564K
20260426T12Z_MSC_RDPS_RelativeHumidity_IsbL-0225_RLatLon0.09_PT035H.grib2 2026-04-26 14:50 628K
20260426T12Z_MSC_RDPS_RelativeHumidity_IsbL-0250_RLatLon0.09_PT035H.grib2 2026-04-26 14:50 693K
20260426T12Z_MSC_RDPS_RelativeHumidity_IsbL-0275_RLatLon0.09_PT035H.grib2 2026-04-26 14:50 723K
20260426T12Z_MSC_RDPS_RelativeHumidity_IsbL-0300_RLatLon0.09_PT035H.grib2 2026-04-26 14:50 763K
20260426T12Z_MSC_RDPS_RelativeHumidity_IsbL-0350_RLatLon0.09_PT035H.grib2 2026-04-26 14:50 778K
20260426T12Z_MSC_RDPS_RelativeHumidity_IsbL-0400_RLatLon0.09_PT035H.grib2 2026-04-26 14:50 796K
20260426T12Z_MSC_RDPS_RelativeHumidity_IsbL-0450_RLatLon0.09_PT035H.grib2 2026-04-26 14:50 813K
20260426T12Z_MSC_RDPS_RelativeHumidity_IsbL-0500_RLatLon0.09_PT035H.grib2 2026-04-26 14:50 819K
20260426T12Z_MSC_RDPS_RelativeHumidity_IsbL-0550_RLatLon0.09_PT035H.grib2 2026-04-26 14:50 835K
20260426T12Z_MSC_RDPS_RelativeHumidity_IsbL-0600_RLatLon0.09_PT035H.grib2 2026-04-26 14:50 857K
20260426T12Z_MSC_RDPS_RelativeHumidity_IsbL-0650_RLatLon0.09_PT035H.grib2 2026-04-26 14:50 880K
20260426T12Z_MSC_RDPS_RelativeHumidity_IsbL-0700_RLatLon0.09_PT035H.grib2 2026-04-26 14:50 908K
20260426T12Z_MSC_RDPS_RelativeHumidity_IsbL-0750_RLatLon0.09_PT035H.grib2 2026-04-26 14:50 955K
20260426T12Z_MSC_RDPS_RelativeHumidity_IsbL-0800_RLatLon0.09_PT035H.grib2 2026-04-26 14:50 1.0M
20260426T12Z_MSC_RDPS_RelativeHumidity_IsbL-0850_RLatLon0.09_PT035H.grib2 2026-04-26 14:50 1.0M
20260426T12Z_MSC_RDPS_RelativeHumidity_IsbL-0875_RLatLon0.09_PT035H.grib2 2026-04-26 14:50 1.1M
20260426T12Z_MSC_RDPS_RelativeHumidity_IsbL-0900_RLatLon0.09_PT035H.grib2 2026-04-26 14:50 1.1M
20260426T12Z_MSC_RDPS_RelativeHumidity_IsbL-0925_RLatLon0.09_PT035H.grib2 2026-04-26 14:50 1.1M
20260426T12Z_MSC_RDPS_RelativeHumidity_IsbL-0950_RLatLon0.09_PT035H.grib2 2026-04-26 14:50 1.1M
20260426T12Z_MSC_RDPS_RelativeHumidity_IsbL-0970_RLatLon0.09_PT035H.grib2 2026-04-26 14:50 1.0M
20260426T12Z_MSC_RDPS_RelativeHumidity_IsbL-0985_RLatLon0.09_PT035H.grib2 2026-04-26 14:50 1.0M
20260426T12Z_MSC_RDPS_RelativeHumidity_IsbL-1000_RLatLon0.09_PT035H.grib2 2026-04-26 14:50 1.0M
20260426T12Z_MSC_RDPS_RelativeHumidity_IsbL-1015_RLatLon0.09_PT035H.grib2 2026-04-26 14:50 1.0M
20260426T12Z_MSC_RDPS_Runoff-Accum_Sfc_RLatLon0.09_PT035H.grib2 2026-04-26 14:50 56K
20260426T12Z_MSC_RDPS_SWEATIndex_Sfc_RLatLon0.09_PT035H.grib2 2026-04-26 14:50 2.4M
20260426T12Z_MSC_RDPS_SeeingIndex_EAtm_RLatLon0.09_PT035H.grib2 2026-04-26 14:50 1.0M
20260426T12Z_MSC_RDPS_SensibleHeatNetFlux_Sfc_RLatLon0.09_PT035H.grib2 2026-04-26 14:50 337K
20260426T12Z_MSC_RDPS_ShowalterIndex_IsbL-0500_RLatLon0.09_PT035H.grib2 2026-04-26 14:50 2.5M
20260426T12Z_MSC_RDPS_SkyTransparencyIndex_EAtm_RLatLon0.09_PT035H.grib2 2026-04-26 14:50 719K
20260426T12Z_MSC_RDPS_Snow-Accum1h_Sfc_RLatLon0.09_PT035H.grib2 2026-04-26 14:50 358K
20260426T12Z_MSC_RDPS_Snow-Accum_Sfc_RLatLon0.09_PT035H.grib2 2026-04-26 14:50 765K
20260426T12Z_MSC_RDPS_SnowDensity_Sfc_RLatLon0.09_PT035H.grib2 2026-04-26 14:50 185K
20260426T12Z_MSC_RDPS_SnowDepth_Sfc_RLatLon0.09_PT035H.grib2 2026-04-26 14:50 722K
20260426T12Z_MSC_RDPS_SoilTemp_DBS-0to10cm_RLatLon0.09_PT035H.grib2 2026-04-26 14:50 236K
20260426T12Z_MSC_RDPS_SoilTemp_Sfc_RLatLon0.09_PT035H.grib2 2026-04-26 14:50 285K
20260426T12Z_MSC_RDPS_SoilVolumetricIceContent_Sfc_RLatLon0.09_PT035H.grib2 2026-04-26 14:50 168K
20260426T12Z_MSC_RDPS_SoilVolumetricWaterContent_DBS-0to10cm_RLatLon0.09_PT035H.grib2 2026-04-26 14:50 260K
20260426T12Z_MSC_RDPS_SoilVolumetricWaterContent_DBS-0to1cm_RLatLon0.09_PT035H.grib2 2026-04-26 14:50 339K
20260426T12Z_MSC_RDPS_SpecificHumidity_AGL-120m_RLatLon0.09_PT035H.grib2 2026-04-26 14:50 490K
20260426T12Z_MSC_RDPS_SpecificHumidity_AGL-2m_RLatLon0.09_PT035H.grib2 2026-04-26 14:50 661K
20260426T12Z_MSC_RDPS_SpecificHumidity_AGL-40m_RLatLon0.09_PT035H.grib2 2026-04-26 14:50 496K
20260426T12Z_MSC_RDPS_SpecificHumidity_AGL-80m_RLatLon0.09_PT035H.grib2 2026-04-26 14:50 491K
20260426T12Z_MSC_RDPS_SpecificHumidity_IsbL-0001_RLatLon0.09_PT035H.grib2 2026-04-26 14:50 344K
20260426T12Z_MSC_RDPS_SpecificHumidity_IsbL-0005_RLatLon0.09_PT035H.grib2 2026-04-26 14:50 358K
20260426T12Z_MSC_RDPS_SpecificHumidity_IsbL-0010_RLatLon0.09_PT035H.grib2 2026-04-26 14:50 398K
20260426T12Z_MSC_RDPS_SpecificHumidity_IsbL-0020_RLatLon0.09_PT035H.grib2 2026-04-26 14:50 389K
20260426T12Z_MSC_RDPS_SpecificHumidity_IsbL-0030_RLatLon0.09_PT035H.grib2 2026-04-26 14:50 479K
20260426T12Z_MSC_RDPS_SpecificHumidity_IsbL-0050_RLatLon0.09_PT035H.grib2 2026-04-26 14:50 471K
20260426T12Z_MSC_RDPS_SpecificHumidity_IsbL-0100_RLatLon0.09_PT035H.grib2 2026-04-26 14:50 347K
20260426T12Z_MSC_RDPS_SpecificHumidity_IsbL-0150_RLatLon0.09_PT035H.grib2 2026-04-26 14:50 364K
20260426T12Z_MSC_RDPS_SpecificHumidity_IsbL-0175_RLatLon0.09_PT035H.grib2 2026-04-26 14:50 472K
20260426T12Z_MSC_RDPS_SpecificHumidity_IsbL-0200_RLatLon0.09_PT035H.grib2 2026-04-26 14:50 468K
20260426T12Z_MSC_RDPS_SpecificHumidity_IsbL-0225_RLatLon0.09_PT035H.grib2 2026-04-26 14:50 466K
20260426T12Z_MSC_RDPS_SpecificHumidity_IsbL-0250_RLatLon0.09_PT035H.grib2 2026-04-26 14:50 565K
20260426T12Z_MSC_RDPS_SpecificHumidity_IsbL-0275_RLatLon0.09_PT035H.grib2 2026-04-26 14:50 480K
20260426T12Z_MSC_RDPS_SpecificHumidity_IsbL-0300_RLatLon0.09_PT035H.grib2 2026-04-26 14:50 573K
20260426T12Z_MSC_RDPS_SpecificHumidity_IsbL-0350_RLatLon0.09_PT035H.grib2 2026-04-26 14:50 533K
20260426T12Z_MSC_RDPS_SpecificHumidity_IsbL-0400_RLatLon0.09_PT035H.grib2 2026-04-26 14:50 519K
20260426T12Z_MSC_RDPS_SpecificHumidity_IsbL-0450_RLatLon0.09_PT035H.grib2 2026-04-26 14:50 580K
20260426T12Z_MSC_RDPS_SpecificHumidity_IsbL-0500_RLatLon0.09_PT035H.grib2 2026-04-26 14:50 517K
20260426T12Z_MSC_RDPS_SpecificHumidity_IsbL-0550_RLatLon0.09_PT035H.grib2 2026-04-26 14:50 571K
20260426T12Z_MSC_RDPS_SpecificHumidity_IsbL-0600_RLatLon0.09_PT035H.grib2 2026-04-26 14:50 641K
20260426T12Z_MSC_RDPS_SpecificHumidity_IsbL-0650_RLatLon0.09_PT035H.grib2 2026-04-26 14:50 560K
20260426T12Z_MSC_RDPS_SpecificHumidity_IsbL-0700_RLatLon0.09_PT035H.grib2 2026-04-26 14:50 608K
20260426T12Z_MSC_RDPS_SpecificHumidity_IsbL-0750_RLatLon0.09_PT035H.grib2 2026-04-26 14:50 668K
20260426T12Z_MSC_RDPS_SpecificHumidity_IsbL-0800_RLatLon0.09_PT035H.grib2 2026-04-26 14:50 746K
20260426T12Z_MSC_RDPS_SpecificHumidity_IsbL-0850_RLatLon0.09_PT035H.grib2 2026-04-26 14:50 677K
20260426T12Z_MSC_RDPS_SpecificHumidity_IsbL-0875_RLatLon0.09_PT035H.grib2 2026-04-26 14:50 698K
20260426T12Z_MSC_RDPS_SpecificHumidity_IsbL-0900_RLatLon0.09_PT035H.grib2 2026-04-26 14:50 707K
20260426T12Z_MSC_RDPS_SpecificHumidity_IsbL-0925_RLatLon0.09_PT035H.grib2 2026-04-26 14:50 709K
20260426T12Z_MSC_RDPS_SpecificHumidity_IsbL-0950_RLatLon0.09_PT035H.grib2 2026-04-26 14:50 705K
20260426T12Z_MSC_RDPS_SpecificHumidity_IsbL-0970_RLatLon0.09_PT035H.grib2 2026-04-26 14:50 695K
20260426T12Z_MSC_RDPS_SpecificHumidity_IsbL-0985_RLatLon0.09_PT035H.grib2 2026-04-26 14:50 688K
20260426T12Z_MSC_RDPS_SpecificHumidity_IsbL-1000_RLatLon0.09_PT035H.grib2 2026-04-26 14:50 682K
20260426T12Z_MSC_RDPS_SpecificHumidity_IsbL-1015_RLatLon0.09_PT035H.grib2 2026-04-26 14:50 675K
20260426T12Z_MSC_RDPS_SpecificHumidity_Sfc_RLatLon0.09_PT035H.grib2 2026-04-26 14:50 340K
20260426T12Z_MSC_RDPS_StormRelativeHelicity_EtaL-10000_RLatLon0.09_PT035H.grib2 2026-04-26 14:50 1.1M
20260426T12Z_MSC_RDPS_StormSeverityIndex_EtaL-10000_RLatLon0.09_PT035H.grib2 2026-04-26 14:50 1.2M
20260426T12Z_MSC_RDPS_Thickness_IsbL-0850to0700_RLatLon0.09_PT035H.grib2 2026-04-26 14:50 176K
20260426T12Z_MSC_RDPS_Thickness_IsbL-1000to0500_RLatLon0.09_PT035H.grib2 2026-04-26 14:50 200K
20260426T12Z_MSC_RDPS_Thickness_IsbL-1000to0850_RLatLon0.09_PT035H.grib2 2026-04-26 14:50 185K
20260426T12Z_MSC_RDPS_TotalCloudCover_Sfc_RLatLon0.09_PT035H.grib2 2026-04-26 14:50 654K
20260426T12Z_MSC_RDPS_TotalTotalsIndex_Sfc_RLatLon0.09_PT035H.grib2 2026-04-26 14:50 2.4M
20260426T12Z_MSC_RDPS_UVIndex-ClearSky_Sfc_RLatLon0.09_PT035H.grib2 2026-04-26 14:50 200K
20260426T12Z_MSC_RDPS_UVIndex_Sfc_RLatLon0.09_PT035H.grib2 2026-04-26 14:50 435K
20260426T12Z_MSC_RDPS_UpwardLongwaveRadiationFlux_NTAtm_RLatLon0.09_PT035H.grib2 2026-04-26 14:50 503K
20260426T12Z_MSC_RDPS_UpwardShortwaveRadiationFlux_NTAtm_RLatLon0.09_PT035H.grib2 2026-04-26 14:50 389K
20260426T12Z_MSC_RDPS_VerticalVelocity_IsbL-0250_RLatLon0.09_PT035H.grib2 2026-04-26 14:50 430K
20260426T12Z_MSC_RDPS_VerticalVelocity_IsbL-0500_RLatLon0.09_PT035H.grib2 2026-04-26 14:50 543K
20260426T12Z_MSC_RDPS_VerticalVelocity_IsbL-0700_RLatLon0.09_PT035H.grib2 2026-04-26 14:50 598K
20260426T12Z_MSC_RDPS_VerticalVelocity_IsbL-0850_RLatLon0.09_PT035H.grib2 2026-04-26 14:50 655K
20260426T12Z_MSC_RDPS_VerticalWindShear_EtaL-6500_RLatLon0.09_PT035H.grib2 2026-04-26 14:50 1.2M
20260426T12Z_MSC_RDPS_WindChill_Sfc_RLatLon0.09_PT035H.grib2 2026-04-26 14:50 1.1M
20260426T12Z_MSC_RDPS_WindDir_AGL-10m_RLatLon0.09_PT035H.grib2 2026-04-26 14:50 956K
20260426T12Z_MSC_RDPS_WindDir_AGL-120m_RLatLon0.09_PT035H.grib2 2026-04-26 14:50 605K
20260426T12Z_MSC_RDPS_WindDir_AGL-40m_RLatLon0.09_PT035H.grib2 2026-04-26 14:50 627K
20260426T12Z_MSC_RDPS_WindDir_AGL-80m_RLatLon0.09_PT035H.grib2 2026-04-26 14:50 614K
20260426T12Z_MSC_RDPS_WindDir_IsbL-0001_RLatLon0.09_PT035H.grib2 2026-04-26 14:50 280K
20260426T12Z_MSC_RDPS_WindDir_IsbL-0005_RLatLon0.09_PT035H.grib2 2026-04-26 14:50 370K
20260426T12Z_MSC_RDPS_WindDir_IsbL-0010_RLatLon0.09_PT035H.grib2 2026-04-26 14:50 401K
20260426T12Z_MSC_RDPS_WindDir_IsbL-0020_RLatLon0.09_PT035H.grib2 2026-04-26 14:50 418K
20260426T12Z_MSC_RDPS_WindDir_IsbL-0030_RLatLon0.09_PT035H.grib2 2026-04-26 14:50 417K
20260426T12Z_MSC_RDPS_WindDir_IsbL-0050_RLatLon0.09_PT035H.grib2 2026-04-26 14:50 431K
20260426T12Z_MSC_RDPS_WindDir_IsbL-0100_RLatLon0.09_PT035H.grib2 2026-04-26 14:50 412K
20260426T12Z_MSC_RDPS_WindDir_IsbL-0150_RLatLon0.09_PT035H.grib2 2026-04-26 14:50 412K
20260426T12Z_MSC_RDPS_WindDir_IsbL-0175_RLatLon0.09_PT035H.grib2 2026-04-26 14:50 433K
20260426T12Z_MSC_RDPS_WindDir_IsbL-0200_RLatLon0.09_PT035H.grib2 2026-04-26 14:50 447K
20260426T12Z_MSC_RDPS_WindDir_IsbL-0225_RLatLon0.09_PT035H.grib2 2026-04-26 14:50 452K
20260426T12Z_MSC_RDPS_WindDir_IsbL-0250_RLatLon0.09_PT035H.grib2 2026-04-26 14:50 451K
20260426T12Z_MSC_RDPS_WindDir_IsbL-0275_RLatLon0.09_PT035H.grib2 2026-04-26 14:50 468K
20260426T12Z_MSC_RDPS_WindDir_IsbL-0300_RLatLon0.09_PT035H.grib2 2026-04-26 14:50 467K
20260426T12Z_MSC_RDPS_WindDir_IsbL-0350_RLatLon0.09_PT035H.grib2 2026-04-26 14:50 488K
20260426T12Z_MSC_RDPS_WindDir_IsbL-0400_RLatLon0.09_PT035H.grib2 2026-04-26 14:50 502K
20260426T12Z_MSC_RDPS_WindDir_IsbL-0450_RLatLon0.09_PT035H.grib2 2026-04-26 14:50 519K
20260426T12Z_MSC_RDPS_WindDir_IsbL-0500_RLatLon0.09_PT035H.grib2 2026-04-26 14:50 536K
20260426T12Z_MSC_RDPS_WindDir_IsbL-0550_RLatLon0.09_PT035H.grib2 2026-04-26 14:50 551K
20260426T12Z_MSC_RDPS_WindDir_IsbL-0600_RLatLon0.09_PT035H.grib2 2026-04-26 14:50 582K
20260426T12Z_MSC_RDPS_WindDir_IsbL-0650_RLatLon0.09_PT035H.grib2 2026-04-26 14:50 624K
20260426T12Z_MSC_RDPS_WindDir_IsbL-0700_RLatLon0.09_PT035H.grib2 2026-04-26 14:50 671K
20260426T12Z_MSC_RDPS_WindDir_IsbL-0750_RLatLon0.09_PT035H.grib2 2026-04-26 14:50 725K
20260426T12Z_MSC_RDPS_WindDir_IsbL-0800_RLatLon0.09_PT035H.grib2 2026-04-26 14:50 796K
20260426T12Z_MSC_RDPS_WindDir_IsbL-0850_RLatLon0.09_PT035H.grib2 2026-04-26 14:50 861K
20260426T12Z_MSC_RDPS_WindDir_IsbL-0875_RLatLon0.09_PT035H.grib2 2026-04-26 14:50 886K
20260426T12Z_MSC_RDPS_WindDir_IsbL-0900_RLatLon0.09_PT035H.grib2 2026-04-26 14:50 903K
20260426T12Z_MSC_RDPS_WindDir_IsbL-0925_RLatLon0.09_PT035H.grib2 2026-04-26 14:50 908K
20260426T12Z_MSC_RDPS_WindDir_IsbL-0950_RLatLon0.09_PT035H.grib2 2026-04-26 14:50 905K
20260426T12Z_MSC_RDPS_WindDir_IsbL-0970_RLatLon0.09_PT035H.grib2 2026-04-26 14:50 907K
20260426T12Z_MSC_RDPS_WindDir_IsbL-0985_RLatLon0.09_PT035H.grib2 2026-04-26 14:50 918K
20260426T12Z_MSC_RDPS_WindDir_IsbL-1000_RLatLon0.09_PT035H.grib2 2026-04-26 14:50 931K
20260426T12Z_MSC_RDPS_WindDir_IsbL-1015_RLatLon0.09_PT035H.grib2 2026-04-26 14:50 948K
20260426T12Z_MSC_RDPS_WindGust-Max_AGL-10m_RLatLon0.09_PT035H.grib2 2026-04-26 14:50 948K
20260426T12Z_MSC_RDPS_WindGust-Min_AGL-10m_RLatLon0.09_PT035H.grib2 2026-04-26 14:50 929K
20260426T12Z_MSC_RDPS_WindGust_AGL-10m_RLatLon0.09_PT035H.grib2 2026-04-26 14:50 937K
20260426T12Z_MSC_RDPS_WindSpeed_AGL-10m_RLatLon0.09_PT035H.grib2 2026-04-26 14:50 842K
20260426T12Z_MSC_RDPS_WindSpeed_AGL-120m_RLatLon0.09_PT035H.grib2 2026-04-26 14:50 544K
20260426T12Z_MSC_RDPS_WindSpeed_AGL-40m_RLatLon0.09_PT035H.grib2 2026-04-26 14:50 552K
20260426T12Z_MSC_RDPS_WindSpeed_AGL-80m_RLatLon0.09_PT035H.grib2 2026-04-26 14:50 547K
20260426T12Z_MSC_RDPS_WindSpeed_IsbL-0001_RLatLon0.09_PT035H.grib2 2026-04-26 14:50 250K
20260426T12Z_MSC_RDPS_WindSpeed_IsbL-0005_RLatLon0.09_PT035H.grib2 2026-04-26 14:50 301K
20260426T12Z_MSC_RDPS_WindSpeed_IsbL-0010_RLatLon0.09_PT035H.grib2 2026-04-26 14:50 316K
20260426T12Z_MSC_RDPS_WindSpeed_IsbL-0020_RLatLon0.09_PT035H.grib2 2026-04-26 14:50 331K
20260426T12Z_MSC_RDPS_WindSpeed_IsbL-0030_RLatLon0.09_PT035H.grib2 2026-04-26 14:50 324K
20260426T12Z_MSC_RDPS_WindSpeed_IsbL-0050_RLatLon0.09_PT035H.grib2 2026-04-26 14:50 358K
20260426T12Z_MSC_RDPS_WindSpeed_IsbL-0100_RLatLon0.09_PT035H.grib2 2026-04-26 14:50 479K
20260426T12Z_MSC_RDPS_WindSpeed_IsbL-0150_RLatLon0.09_PT035H.grib2 2026-04-26 14:50 383K
20260426T12Z_MSC_RDPS_WindSpeed_IsbL-0175_RLatLon0.09_PT035H.grib2 2026-04-26 14:50 413K
20260426T12Z_MSC_RDPS_WindSpeed_IsbL-0200_RLatLon0.09_PT035H.grib2 2026-04-26 14:50 449K
20260426T12Z_MSC_RDPS_WindSpeed_IsbL-0225_RLatLon0.09_PT035H.grib2 2026-04-26 14:50 453K
20260426T12Z_MSC_RDPS_WindSpeed_IsbL-0250_RLatLon0.09_PT035H.grib2 2026-04-26 14:50 455K
20260426T12Z_MSC_RDPS_WindSpeed_IsbL-0275_RLatLon0.09_PT035H.grib2 2026-04-26 14:50 471K
20260426T12Z_MSC_RDPS_WindSpeed_IsbL-0300_RLatLon0.09_PT035H.grib2 2026-04-26 14:50 469K
20260426T12Z_MSC_RDPS_WindSpeed_IsbL-0350_RLatLon0.09_PT035H.grib2 2026-04-26 14:50 477K
20260426T12Z_MSC_RDPS_WindSpeed_IsbL-0400_RLatLon0.09_PT035H.grib2 2026-04-26 14:50 461K
20260426T12Z_MSC_RDPS_WindSpeed_IsbL-0450_RLatLon0.09_PT035H.grib2 2026-04-26 14:50 462K
20260426T12Z_MSC_RDPS_WindSpeed_IsbL-0500_RLatLon0.09_PT035H.grib2 2026-04-26 14:50 460K
20260426T12Z_MSC_RDPS_WindSpeed_IsbL-0550_RLatLon0.09_PT035H.grib2 2026-04-26 14:50 462K
20260426T12Z_MSC_RDPS_WindSpeed_IsbL-0600_RLatLon0.09_PT035H.grib2 2026-04-26 14:50 591K
20260426T12Z_MSC_RDPS_WindSpeed_IsbL-0650_RLatLon0.09_PT035H.grib2 2026-04-26 14:50 613K
20260426T12Z_MSC_RDPS_WindSpeed_IsbL-0700_RLatLon0.09_PT035H.grib2 2026-04-26 14:50 681K
20260426T12Z_MSC_RDPS_WindSpeed_IsbL-0750_RLatLon0.09_PT035H.grib2 2026-04-26 14:50 710K
20260426T12Z_MSC_RDPS_WindSpeed_IsbL-0800_RLatLon0.09_PT035H.grib2 2026-04-26 14:50 756K
20260426T12Z_MSC_RDPS_WindSpeed_IsbL-0850_RLatLon0.09_PT035H.grib2 2026-04-26 14:50 765K
20260426T12Z_MSC_RDPS_WindSpeed_IsbL-0875_RLatLon0.09_PT035H.grib2 2026-04-26 14:50 786K
20260426T12Z_MSC_RDPS_WindSpeed_IsbL-0900_RLatLon0.09_PT035H.grib2 2026-04-26 14:50 800K
20260426T12Z_MSC_RDPS_WindSpeed_IsbL-0925_RLatLon0.09_PT035H.grib2 2026-04-26 14:50 809K
20260426T12Z_MSC_RDPS_WindSpeed_IsbL-0950_RLatLon0.09_PT035H.grib2 2026-04-26 14:50 810K
20260426T12Z_MSC_RDPS_WindSpeed_IsbL-0970_RLatLon0.09_PT035H.grib2 2026-04-26 14:50 858K
20260426T12Z_MSC_RDPS_WindSpeed_IsbL-0985_RLatLon0.09_PT035H.grib2 2026-04-26 14:50 859K
20260426T12Z_MSC_RDPS_WindSpeed_IsbL-1000_RLatLon0.09_PT035H.grib2 2026-04-26 14:50 850K
20260426T12Z_MSC_RDPS_WindSpeed_IsbL-1015_RLatLon0.09_PT035H.grib2 2026-04-26 14:50 843K
20260426T12Z_MSC_RDPS_WindU_AGL-10m_RLatLon0.09_PT035H.grib2 2026-04-26 14:50 435K
20260426T12Z_MSC_RDPS_WindU_AGL-120m_RLatLon0.09_PT035H.grib2 2026-04-26 14:50 415K
20260426T12Z_MSC_RDPS_WindU_AGL-40m_RLatLon0.09_PT035H.grib2 2026-04-26 14:50 538K
20260426T12Z_MSC_RDPS_WindU_AGL-80m_RLatLon0.09_PT035H.grib2 2026-04-26 14:50 418K
20260426T12Z_MSC_RDPS_WindU_IsbL-0001_RLatLon0.09_PT035H.grib2 2026-04-26 14:50 293K
20260426T12Z_MSC_RDPS_WindU_IsbL-0005_RLatLon0.09_PT035H.grib2 2026-04-26 14:50 293K
20260426T12Z_MSC_RDPS_WindU_IsbL-0010_RLatLon0.09_PT035H.grib2 2026-04-26 14:50 304K
20260426T12Z_MSC_RDPS_WindU_IsbL-0020_RLatLon0.09_PT035H.grib2 2026-04-26 14:50 359K
20260426T12Z_MSC_RDPS_WindU_IsbL-0030_RLatLon0.09_PT035H.grib2 2026-04-26 14:50 354K
20260426T12Z_MSC_RDPS_WindU_IsbL-0050_RLatLon0.09_PT035H.grib2 2026-04-26 14:50 384K
20260426T12Z_MSC_RDPS_WindU_IsbL-0100_RLatLon0.09_PT035H.grib2 2026-04-26 14:50 436K
20260426T12Z_MSC_RDPS_WindU_IsbL-0150_RLatLon0.09_PT035H.grib2 2026-04-26 14:50 400K
20260426T12Z_MSC_RDPS_WindU_IsbL-0175_RLatLon0.09_PT035H.grib2 2026-04-26 14:50 426K
20260426T12Z_MSC_RDPS_WindU_IsbL-0200_RLatLon0.09_PT035H.grib2 2026-04-26 14:50 442K
20260426T12Z_MSC_RDPS_WindU_IsbL-0225_RLatLon0.09_PT035H.grib2 2026-04-26 14:50 446K
20260426T12Z_MSC_RDPS_WindU_IsbL-0250_RLatLon0.09_PT035H.grib2 2026-04-26 14:50 446K
20260426T12Z_MSC_RDPS_WindU_IsbL-0275_RLatLon0.09_PT035H.grib2 2026-04-26 14:50 461K
20260426T12Z_MSC_RDPS_WindU_IsbL-0300_RLatLon0.09_PT035H.grib2 2026-04-26 14:50 356K
20260426T12Z_MSC_RDPS_WindU_IsbL-0350_RLatLon0.09_PT035H.grib2 2026-04-26 14:50 362K
20260426T12Z_MSC_RDPS_WindU_IsbL-0400_RLatLon0.09_PT035H.grib2 2026-04-26 14:50 466K
20260426T12Z_MSC_RDPS_WindU_IsbL-0450_RLatLon0.09_PT035H.grib2 2026-04-26 14:50 467K
20260426T12Z_MSC_RDPS_WindU_IsbL-0500_RLatLon0.09_PT035H.grib2 2026-04-26 14:50 467K
20260426T12Z_MSC_RDPS_WindU_IsbL-0550_RLatLon0.09_PT035H.grib2 2026-04-26 14:50 470K
20260426T12Z_MSC_RDPS_WindU_IsbL-0600_RLatLon0.09_PT035H.grib2 2026-04-26 14:50 480K
20260426T12Z_MSC_RDPS_WindU_IsbL-0650_RLatLon0.09_PT035H.grib2 2026-04-26 14:50 498K
20260426T12Z_MSC_RDPS_WindU_IsbL-0700_RLatLon0.09_PT035H.grib2 2026-04-26 14:50 519K
20260426T12Z_MSC_RDPS_WindU_IsbL-0750_RLatLon0.09_PT035H.grib2 2026-04-26 14:50 532K
20260426T12Z_MSC_RDPS_WindU_IsbL-0800_RLatLon0.09_PT035H.grib2 2026-04-26 14:50 572K
20260426T12Z_MSC_RDPS_WindU_IsbL-0850_RLatLon0.09_PT035H.grib2 2026-04-26 14:50 620K
20260426T12Z_MSC_RDPS_WindU_IsbL-0875_RLatLon0.09_PT035H.grib2 2026-04-26 14:50 637K
20260426T12Z_MSC_RDPS_WindU_IsbL-0900_RLatLon0.09_PT035H.grib2 2026-04-26 14:50 648K
20260426T12Z_MSC_RDPS_WindU_IsbL-0925_RLatLon0.09_PT035H.grib2 2026-04-26 14:50 655K
20260426T12Z_MSC_RDPS_WindU_IsbL-0950_RLatLon0.09_PT035H.grib2 2026-04-26 14:50 653K
20260426T12Z_MSC_RDPS_WindU_IsbL-0970_RLatLon0.09_PT035H.grib2 2026-04-26 14:50 652K
20260426T12Z_MSC_RDPS_WindU_IsbL-0985_RLatLon0.09_PT035H.grib2 2026-04-26 14:50 652K
20260426T12Z_MSC_RDPS_WindU_IsbL-1000_RLatLon0.09_PT035H.grib2 2026-04-26 14:50 787K
20260426T12Z_MSC_RDPS_WindU_IsbL-1015_RLatLon0.09_PT035H.grib2 2026-04-26 14:50 783K
20260426T12Z_MSC_RDPS_WindV_AGL-10m_RLatLon0.09_PT035H.grib2 2026-04-26 14:50 432K
20260426T12Z_MSC_RDPS_WindV_AGL-120m_RLatLon0.09_PT035H.grib2 2026-04-26 14:50 414K
20260426T12Z_MSC_RDPS_WindV_AGL-40m_RLatLon0.09_PT035H.grib2 2026-04-26 14:50 418K
20260426T12Z_MSC_RDPS_WindV_AGL-80m_RLatLon0.09_PT035H.grib2 2026-04-26 14:50 416K
20260426T12Z_MSC_RDPS_WindV_IsbL-0001_RLatLon0.09_PT035H.grib2 2026-04-26 14:50 266K
20260426T12Z_MSC_RDPS_WindV_IsbL-0005_RLatLon0.09_PT035H.grib2 2026-04-26 14:50 291K
20260426T12Z_MSC_RDPS_WindV_IsbL-0010_RLatLon0.09_PT035H.grib2 2026-04-26 14:50 305K
20260426T12Z_MSC_RDPS_WindV_IsbL-0020_RLatLon0.09_PT035H.grib2 2026-04-26 14:50 322K
20260426T12Z_MSC_RDPS_WindV_IsbL-0030_RLatLon0.09_PT035H.grib2 2026-04-26 14:50 319K
20260426T12Z_MSC_RDPS_WindV_IsbL-0050_RLatLon0.09_PT035H.grib2 2026-04-26 14:50 351K
20260426T12Z_MSC_RDPS_WindV_IsbL-0100_RLatLon0.09_PT035H.grib2 2026-04-26 14:50 335K
20260426T12Z_MSC_RDPS_WindV_IsbL-0150_RLatLon0.09_PT035H.grib2 2026-04-26 14:50 398K
20260426T12Z_MSC_RDPS_WindV_IsbL-0175_RLatLon0.09_PT035H.grib2 2026-04-26 14:50 425K
20260426T12Z_MSC_RDPS_WindV_IsbL-0200_RLatLon0.09_PT035H.grib2 2026-04-26 14:50 343K
20260426T12Z_MSC_RDPS_WindV_IsbL-0225_RLatLon0.09_PT035H.grib2 2026-04-26 14:50 345K
20260426T12Z_MSC_RDPS_WindV_IsbL-0250_RLatLon0.09_PT035H.grib2 2026-04-26 14:50 369K
20260426T12Z_MSC_RDPS_WindV_IsbL-0275_RLatLon0.09_PT035H.grib2 2026-04-26 14:50 357K
20260426T12Z_MSC_RDPS_WindV_IsbL-0300_RLatLon0.09_PT035H.grib2 2026-04-26 14:50 378K
20260426T12Z_MSC_RDPS_WindV_IsbL-0350_RLatLon0.09_PT035H.grib2 2026-04-26 14:50 359K
20260426T12Z_MSC_RDPS_WindV_IsbL-0400_RLatLon0.09_PT035H.grib2 2026-04-26 14:50 360K
20260426T12Z_MSC_RDPS_WindV_IsbL-0450_RLatLon0.09_PT035H.grib2 2026-04-26 14:50 360K
20260426T12Z_MSC_RDPS_WindV_IsbL-0500_RLatLon0.09_PT035H.grib2 2026-04-26 14:50 462K
20260426T12Z_MSC_RDPS_WindV_IsbL-0550_RLatLon0.09_PT035H.grib2 2026-04-26 14:50 464K
20260426T12Z_MSC_RDPS_WindV_IsbL-0600_RLatLon0.09_PT035H.grib2 2026-04-26 14:50 474K
20260426T12Z_MSC_RDPS_WindV_IsbL-0650_RLatLon0.09_PT035H.grib2 2026-04-26 14:50 494K
20260426T12Z_MSC_RDPS_WindV_IsbL-0700_RLatLon0.09_PT035H.grib2 2026-04-26 14:50 515K
20260426T12Z_MSC_RDPS_WindV_IsbL-0750_RLatLon0.09_PT035H.grib2 2026-04-26 14:50 539K
20260426T12Z_MSC_RDPS_WindV_IsbL-0800_RLatLon0.09_PT035H.grib2 2026-04-26 14:50 566K
20260426T12Z_MSC_RDPS_WindV_IsbL-0850_RLatLon0.09_PT035H.grib2 2026-04-26 14:50 614K
20260426T12Z_MSC_RDPS_WindV_IsbL-0875_RLatLon0.09_PT035H.grib2 2026-04-26 14:50 633K
20260426T12Z_MSC_RDPS_WindV_IsbL-0900_RLatLon0.09_PT035H.grib2 2026-04-26 14:50 646K
20260426T12Z_MSC_RDPS_WindV_IsbL-0925_RLatLon0.09_PT035H.grib2 2026-04-26 14:50 652K
20260426T12Z_MSC_RDPS_WindV_IsbL-0950_RLatLon0.09_PT035H.grib2 2026-04-26 14:50 651K
20260426T12Z_MSC_RDPS_WindV_IsbL-0970_RLatLon0.09_PT035H.grib2 2026-04-26 14:50 650K
20260426T12Z_MSC_RDPS_WindV_IsbL-0985_RLatLon0.09_PT035H.grib2 2026-04-26 14:50 649K
20260426T12Z_MSC_RDPS_WindV_IsbL-1000_RLatLon0.09_PT035H.grib2 2026-04-26 14:50 784K
20260426T12Z_MSC_RDPS_WindV_IsbL-1015_RLatLon0.09_PT035H.grib2 2026-04-26 14:50 779K